This demonstration page uses our WeatherBlox Daily Observations layout. Learn more.

Left ArrowRight Arrow

40.92945, -100.16068

Hourly Observations for October 29, 2018

Temp ( °F °C ) Dew Point ( °F °C ) Humidity (%) Winds ( mph kmh ) Pressure ( in mb ) Visibility ( mi km ) Precip ( " mm )
12:15 am 00:15 Clear 46 7.8 35 1.5 65 65 S 9 15 30.06 1018 10 16.0934 0 0
12:35 am 00:35 Clear 47 8.5 35 1.5 62 62 SSE 9 15 30.06 1018 10 16.0934 0 0
12:55 am 00:55 Clear 48 9 34 1.1 58 58 SSE 6 9 30.06 1018 10 16.0934 0 0
1:15 am 01:15 Clear 48 9.1 35 1.6 60 60 S 7 11 30.03 1017 10 16.0934 0 0
1:35 am 01:35 Clear 50 9.9 35 1.6 57 57 S 9 15 30.03 1017 10 16.0934 0 0
1:55 am 01:55 Clear 50 10 35 1.6 56 56 S 12 19 30 1016 10 16.0934 0 0
2:15 am 02:15 Clear 50 9.9 35 1.5 56 56 S 7 11 30.03 1017 10 16.0934 0 0
2:35 am 02:35 Clear 49 9.6 35 1.6 58 58 S 13 20 30.03 1017 10 16.0934 0 0
2:55 am 02:55 Clear 48 9 35 1.6 60 60 S 10 17 30 1016 10 16.0934 0 0
3:15 am 03:15 Clear 47 8.3 35 1.5 63 63 S 7 11 30 1016 10 16.0934 0 0
3:35 am 03:35 Clear 47 8.3 35 1.5 63 63 S 8 13 30 1016 10 16.0934 0 0
3:55 am 03:55 Clear 47 8.1 35 1.5 63 63 SSE 10 17 30 1016 10 16.0934 0 0
4:15 am 04:15 Clear 47 8.5 35 1.5 62 62 S 9 15 30 1016 10 16.0934 0 0
4:35 am 04:35 Clear 46 7.7 34 1.3 64 64 SSE 8 13 30 1016 10 16.0934 0 0
4:55 am 04:55 Clear 47 8.4 35 1.5 62 62 SSE 9 15 29.97 1015 10 16.0934 0 0
5:15 am 05:15 Clear 46 8 35 1.5 64 64 S 9 15 29.97 1015 10 16.0934 0 0
5:35 am 05:35 Clear 45 7.3 35 1.5 67 67 S 9 15 29.97 1015 10 16.0934 0 0
5:55 am 05:55 Clear 44 6.4 35 1.5 71 71 SSE 7 11 29.94 1014 10 16.0934 0 0
6:15 am 06:15 Clear 44 6.5 34 1.2 69 69 SE 6 9 29.94 1014 10 16.0934 0 0
6:35 am 06:35 Clear 44 6.9 34 1.2 67 67 SE 6 9 29.94 1014 10 16.0934 0 0
6:55 am 06:55 Clear 45 7.2 34 1.1 66 66 SSE 7 11 29.94 1014 10 16.0934 0 0
7:15 am 07:15 Clear 45 7.1 34 1.2 66 66 SSE 9 15 29.94 1014 10 16.0934 0 0
7:35 am 07:35 Clear 45 7.3 34 1.1 65 65 SSE 9 15 29.94 1014 10 16.0934 0 0
7:55 am 07:55 Clear 46 8 33 0.8 61 61 Calm 29.94 1014 10 16.0934 0 0
8:15 am 08:15 Sunny 46 7.7 33 0.7 62 62 S 7 11 29.94 1014 10 16.0934 0 0
8:35 am 08:35 Sunny 45 7.4 34 1.2 65 65 S 6 9 29.94 1014 10 16.0934 0 0
8:55 am 08:55 Sunny 46 7.7 35 1.6 66 66 S 6 9 29.91 1013 10 16.0934 0 0
9:15 am 09:15 Sunny 49 9.5 37 2.7 63 63 SSW 5 7 29.91 1013 10 16.0934 0 0
9:35 am 09:35 Sunny 52 11 36 2.4 56 56 SW 10 17 29.91 1013 10 16.0934 0 0
9:55 am 09:55 Sunny 52 11 37 2.8 57 57 SSW 8 13 29.91 1013 10 16.0934 0 0
10:15 am 10:15 Sunny 53 11.5 38 3.4 58 58 SSW 12 19 29.91 1013 10 16.0934 0 0
10:35 am 10:35 Sunny 54 12.2 39 3.8 57 57 SSW 15 24 29.85 1011 10 16.0934 0 0
10:55 am 10:55 Sunny 55 12.5 40 4.2 57 57 SSW 9 15 29.85 1011 10 16.0934 0 0
11:15 am 11:15 Sunny 56 13.5 41 4.8 56 56 SSW 9 15 29.83 1010 10 16.0934 0 0
11:35 am 11:35 Sunny 56 13.6 40 4.6 55 55 SSW 5 7 29.83 1010 10 16.0934 0 0
11:55 am 11:55 Sunny 57 14 41 4.9 55 55 S 6 9 29.83 1010 10 16.0934 0 0
12:15 pm 12:15 Sunny 58 14.5 41 5.2 54 54 S 9 15 29.83 1010 10 16.0934 0 0
12:35 pm 12:35 Sunny 60 15.3 42 5.6 53 53 S 7 11 29.77 1008 10 16.0934 0 0
12:55 pm 12:55 Sunny 62 16.6 44 6.4 51 51 SSW 7 11 29.77 1008 10 16.0934 0 0
1:15 pm 13:15 Sunny 64 17.9 43 6.3 47 47 SSW 7 11 29.77 1008 10 16.0934 0 0
1:35 pm 13:35 Sunny 66 18.8 44 6.7 45 45 S 8 13 29.71 1006 10 16.0934 0 0
1:55 pm 13:55 Sunny 66 19.1 44 6.8 45 45 SW 12 19 29.71 1006 10 16.0934 0 0
2:15 pm 14:15 Sunny 67 19.3 44 6.8 44 44 SSW 7 11 29.68 1005 10 16.0934 0 0
2:35 pm 14:35 Sunny 67 19.7 44 6.9 44 44 S 7 11 29.68 1005 10 16.0934 0 0
2:55 pm 14:55 Sunny 68 19.8 45 7.2 44 44 S 9 15 29.68 1005 10 16.0934 0 0
3:15 pm 15:15 Sunny 68 20.1 46 7.5 44 44 S 7 11 29.68 1005 10 16.0934 0 0
3:35 pm 15:35 Sunny 68 20 46 7.6 45 45 S 6 9 29.68 1005 10 16.0934 0 0
3:55 pm 15:55 Sunny 69 20.5 47 8.2 45 45 S 8 13 29.65 1004 10 16.0934 0 0
4:15 pm 16:15 Sunny 69 20.8 47 8.6 46 46 S 8 13 29.62 1003 10 16.0934 0 0
4:35 pm 16:35 Sunny 70 21 47 8.1 44 44 S 9 15 29.62 1003 10 16.0934 0 0
4:55 pm 16:55 Sunny 69 20.6 47 8.5 46 46 S 9 15 29.62 1003 10 16.0934 0 0
5:15 pm 17:15 Sunny 69 20.4 47 8.3 46 46 S 10 17 29.65 1004 10 16.0934 0 0
5:35 pm 17:35 Sunny 66 19 47 8.6 51 51 S 7 11 29.65 1004 10 16.0934 0 0
5:55 pm 17:55 Sunny 64 17.7 48 8.7 56 56 SSE 7 11 29.62 1003 10 16.0934 0 0
6:15 pm 18:15 Sunny 63 17.2 47 8.3 56 56 SE 7 11 29.62 1003 10 16.0934 0 0
6:35 pm 18:35 Sunny 62 16.4 47 8.2 59 59 SE 5 7 29.65 1004 10 16.0934 0 0
6:55 pm 18:55 Clear 61 16.3 47 8.1 59 59 SE 6 9 29.65 1004 10 16.0934 0 0
7:15 pm 19:15 Clear 59 14.9 46 7.7 62 62 SSE 5 7 29.68 1005 10 16.0934 0 0
7:35 pm 19:35 Clear 57 13.7 46 7.7 67 67 Calm 29.71 1006 10 16.0934 0 0
7:55 pm 19:55 Clear 51 10.8 43 6.2 73 73 E 3 6 29.71 1006 7 11.26538 0 0
8:15 pm 20:15 Hazy 50 10 44 6.8 81 81 Calm 29.74 1007 5 8.0467 0 0
8:35 pm 20:35 Clear 51 10.7 45 7.3 80 80 Calm 29.71 1006 7 11.26538 0 0
8:55 pm 20:55 Clear 49 9.3 44 6.5 83 83 E 5 7 29.74 1007 10 16.0934 0 0
9:15 pm 21:15 Clear 49 9.2 43 6.3 82 82 E 5 7 29.74 1007 10 16.0934 0 0
9:35 pm 21:35 Clear 50 10.2 45 7.1 81 81 E 5 7 29.74 1007 10 16.0934 0 0
9:55 pm 21:55 Clear 47 8.2 42 5.6 84 84 ENE 5 7 29.74 1007 10 16.0934 0 0
10:15 pm 22:15 Clear 50 9.9 45 7 82 82 ENE 3 6 29.74 1007 10 16.0934 0 0
10:35 pm 22:35 Clear 46 7.8 42 5.6 86 86 N 6 9 29.74 1007 10 16.0934 0 0
10:55 pm 22:55 Clear 53 11.5 46 8 79 79 N 7 11 29.77 1008 10 16.0934 0 0
11:15 pm 23:15 Clear 55 12.8 46 7.5 70 70 N 20 31 29.8 1009 10 16.0934 0 0
11:35 pm 23:35 Clear 54 12.3 42 5.5 63 63 N 18 30 29.8 1009 10 16.0934 0 0
11:55 pm 23:55 Clear 54 12 40 4.5 60 60 N 18 30 29.8 1009 10 16.0934 0 0

Powered by AerisWeather